Hourly Data Report for August 18, 2009

All times are specified in Local Standard Time (LST). Add 1 hour to adjust for Daylight Saving Time where and when it is observed.

EMERSON AUT
MANITOBA

49°00'00.000" N
97°14'15.000" W
242.00 m
5020882
71560
WEX

Download Data

Hourly Data (August 2009)
Hourly Data Report for August 18, 2009
Temp Definition
°C
Dew Point Temp Definition
°C
Rel Hum Definition
%
Wind Dir Definition
10's deg

Wind Spd Definition
km/h
Visibility Definition
km
Stn Press Definition
kPa
Hmdx Definition


Wind Chill Definition


Weather Definition


TIME
00:00 10.3 8.8 90 30 13   98.19     LegendNANA
01:00 9.8 9.1 95 28 9   98.20     LegendNANA
02:00 10.5 9.5 94 27 9   98.22     LegendNANA
03:00 10.6 9.8 95 27 7   98.21     LegendNANA
04:00 10.5 9.6 94 28 9   98.20     LegendNANA
05:00 9.8 8.5 92 30 11   98.21     LegendNANA
06:00 8.4 7.5 94 27 7   98.26     LegendNANA
07:00 10.3 9.1 92 26 13   98.31     LegendNANA
08:00 12.0 9.6 85 27 9   98.33     LegendNANA
09:00 13.7 9.4 75 24 9   98.30     LegendNANA
10:00 14.9 9.4 70 26 9   98.26     LegendNANA
11:00 16.8 11.0 69 23 13   98.22     LegendNANA
12:00 19.5 13.4 68 22 13   98.15     LegendNANA
13:00 20.4 11.9 58 25 7   98.10     LegendNANA
14:00 22.2 8.8 42 24 17   98.05     LegendNANA
15:00 22.6 7.9 39 25 13   97.98     LegendNANA
16:00 22.6 9.2 42 21 13   97.94     LegendNANA
17:00 23.7 11.6 47 22 7   97.90 26   LegendNANA
18:00 21.5 13.3 60 16 7   97.84     LegendNANA
19:00 21.0 13.4 62 16 13   97.78     LegendNANA
20:00 18.6 13.1 70 14 13   97.74     LegendNANA
21:00 17.3 13.4 78 15 15   97.71     LegendNANA
22:00 16.8 12.1 74 14 13   97.66     LegendNANA
23:00 15.8 11.6 76 14 13   97.60     LegendNANA

Notes on Data Quality.

Legend

  • E = Estimated
  • M = Missing
  • NA = Not Available
  • ‡ = Partner data that is not subject to review by the National Climate Archives
Date modified: